Theta_e
359 359 359 359 358 358 357 358 357 357 357 356 356 357 356 356 356 356 355 355 356 357 355 354 355 355 355 354 352 350 351 351 351 353 352 351 352 352 353 353 352 353 354 354 353 352 351 350 350 349 349 349 348 347 347 346 346 346 347 348 347 349 352 353 359 361 357 352 351 350 349 349 349 350 350 350 350 352 352 349 348 350 350 350 351
358 359 358 358 358 358 357 357 357 357 357 357 356 356 356 356 355 355 355 355 356 355 355 355 355 355 355 354 352 350 351 351 351 352 351 350 351 352 352 352 351 353 354 354 354 354 351 350 350 350 349 349 349 349 347 346 346 346 347 348 348 349 351 353 356 359 358 354 351 349 349 349 349 349 350 350 350 351 352 351 348 349 351 352 352
358 359 359 358 357 356 356 356 357 357 357 356 356 355 355 355 354 354 355 354 355 355 354 355 355 354 353 353 353 353 352 351 351 351 350 349 350 351 351 349 350 353 354 353 354 354 352 351 350 349 350 349 349 349 348 346 345 345 346 347 348 348 349 351 354 356 357 355 353 351 350 349 348 349 349 350 350 351 352 352 350 349 351 352 353
359 360 361 360 359 357 355 356 357 358 357 356 355 355 355 354 352 353 354 354 355 355 353 353 354 354 353 352 353 354 353 352 351 351 350 349 349 350 350 349 349 350 351 352 353 353 353 352 350 350 350 350 349 349 348 347 345 344 345 345 347 348 347 349 351 354 355 355 354 353 351 350 349 350 350 350 350 350 351 352 352 351 351 351 352
361 362 361 361 360 356 354 354 356 356 356 356 355 355 354 353 352 352 354 354 355 355 353 353 354 353 353 352 351 352 354 353 351 351 350 349 349 349 349 350 350 350 350 351 352 352 353 352 351 350 350 350 349 349 348 347 346 344 344 344 345 346 347 347 349 352 354 355 355 354 352 351 350 350 350 350 350 350 351 353 354 353 352 352 351
362 362 362 361 360 355 353 354 355 355 355 356 356 355 354 354 353 351 351 352 353 354 353 352 353 353 353 353 352 353 354 353 351 351 350 350 350 349 349 350 351 351 352 351 351 351 352 352 350 350 349 349 349 349 348 347 346 345 344 344 344 344 345 347 348 350 353 354 355 355 354 352 351 351 351 350 351 352 352 353 353 353 352 352 352
360 360 361 362 360 357 356 355 356 356 357 357 356 356 356 355 353 351 349 350 352 353 352 352 352 354 355 355 355 355 353 351 351 351 350 351 351 350 350 350 351 351 351 351 350 349 350 351 350 349 349 349 348 348 348 347 346 346 344 344 344 344 345 347 350 350 351 354 355 355 355 355 353 352 352 351 351 353 353 355 356 354 352 351 351
357 357 358 360 360 360 358 357 357 357 358 358 357 357 356 355 354 352 350 350 351 352 353 352 352 353 355 355 355 354 352 350 351 351 351 352 351 351 351 351 351 351 351 350 349 348 348 350 351 350 350 349 349 348 348 348 347 346 346 344 344 344 345 346 349 351 351 353 354 354 356 357 355 353 353 353 353 354 355 355 357 356 353 351 351
356 356 356 357 358 359 358 357 358 358 359 359 357 355 355 354 354 353 352 352 352 352 352 353 352 352 353 354 354 354 353 352 351 350 351 352 351 351 351 351 351 351 350 349 349 348 348 348 350 351 351 351 351 350 349 349 349 351 352 350 347 348 348 347 349 351 352 353 353 353 356 357 356 355 354 354 354 355 355 355 355 356 354 353 352
353 354 355 355 355 357 358 358 358 358 359 359 356 354 354 353 352 352 353 353 353 352 352 352 352 352 353 353 354 355 355 355 354 352 351 352 352 352 351 351 350 350 349 349 349 349 349 348 349 350 351 352 353 353 351 350 350 351 354 355 352 351 352 351 351 351 352 354 354 354 355 356 356 355 354 354 353 355 356 356 356 355 355 356 356
349 352 353 353 355 356 355 354 354 355 356 356 355 355 355 354 353 353 352 352 352 352 351 350 351 351 351 352 353 354 356 356 356 355 353 352 352 351 352 351 351 350 350 351 351 351 350 350 350 350 350 352 354 354 353 351 351 350 351 354 353 352 353 354 355 354 354 356 356 355 355 355 354 354 354 353 353 355 356 357 357 356 356 357 359
346 349 351 351 353 355 352 350 351 351 353 353 352 353 354 354 354 353 352 352 352 351 350 350 350 349 349 350 351 353 355 355 355 355 354 352 352 352 352 352 351 351 351 352 352 352 352 351 351 351 351 351 353 355 355 353 353 352 351 352 352 352 353 353 355 356 357 358 358 356 355 354 354 353 353 352 351 352 354 356 358 358 358 358 358
343 345 348 347 348 350 350 349 350 350 351 350 349 349 349 349 352 353 353 353 352 352 351 351 351 349 347 348 349 350 352 354 355 355 354 352 352 352 352 353 352 351 352 352 353 353 353 352 351 351 352 352 352 354 355 355 355 354 352 352 352 352 352 352 352 354 355 357 358 357 356 355 355 355 353 353 351 350 352 353 356 357 358 359 358
341 343 345 344 343 344 346 347 348 349 349 348 347 348 347 347 349 352 353 353 352 353 352 352 352 350 347 346 346 348 351 353 354 354 353 352 352 352 352 353 352 351 352 353 353 353 353 352 351 351 353 353 352 352 352 354 356 356 355 353 352 352 352 352 352 352 352 353 354 355 355 355 356 356 355 355 353 352 352 353 353 355 357 358 358
340 341 342 343 342 341 343 345 346 347 347 347 348 348 348 348 348 349 350 351 352 353 353 353 353 351 350 349 347 347 350 352 353 352 353 353 352 351 351 351 351 351 352 353 353 354 353 353 353 353 354 354 353 351 351 351 353 355 356 356 354 354 354 355 355 355 354 353 352 352 352 352 353 354 353 355 355 354 354 353 352 353 356 359 358
341 340 341 341 341 340 341 345 348 348 346 346 347 348 349 348 348 349 349 350 352 354 354 354 353 350 350 350 346 345 347 351 352 352 351 352 351 349 347 349 351 351 351 352 353 354 355 355 354 353 354 354 353 352 351 351 352 353 356 357 356 355 356 356 356 356 356 356 355 355 354 353 353 353 353 353 353 353 354 354 354 354 356 358 357
340 340 340 341 341 340 339 342 347 349 349 348 347 347 348 349 349 350 350 351 353 353 352 351 349 348 348 348 347 347 348 351 352 352 351 351 351 348 345 347 350 352 350 350 351 352 353 355 354 353 353 352 352 352 351 352 353 353 355 356 356 355 356 355 355 355 354 355 355 355 355 354 354 354 354 353 353 353 352 353 354 355 356 356 355
338 338 339 339 340 341 339 339 341 346 350 350 349 348 349 350 351 351 351 352 353 352 351 349 348 349 349 349 349 349 350 350 352 352 351 351 351 348 345 344 348 350 350 349 349 347 349 354 355 353 352 351 349 350 350 352 354 354 354 356 355 355 355 354 353 353 352 351 351 351 352 352 352 352 352 353 353 353 353 352 352 353 354 355 354
336 337 337 338 339 340 340 340 340 341 345 348 349 350 350 350 351 350 349 350 351 351 351 350 350 350 349 348 349 350 349 349 350 351 351 350 349 349 346 344 347 351 351 350 348 346 348 354 355 353 352 352 352 352 352 353 354 354 354 355 354 353 353 352 352 352 351 351 352 352 352 352 352 352 352 352 352 353 353 353 352 352 353 353 353
335 336 336 337 338 339 340 341 341 340 341 343 345 347 348 350 351 349 349 350 351 351 351 350 350 350 348 346 347 348 349 349 350 350 350 350 349 349 348 347 349 351 351 348 347 346 348 352 354 354 352 352 353 354 354 353 353 353 353 353 353 353 352 351 351 351 351 351 351 351 351 351 351 351 351 352 352 352 352 352 352 353 353 352 352
337 336 336 337 338 339 340 340 341 340 340 340 341 343 346 349 350 350 350 351 350 350 350 349 350 350 349 347 346 348 349 349 349 349 349 350 350 350 350 349 350 351 348 345 344 344 345 348 350 352 352 351 352 353 353 352 352 351 351 351 351 351 350 350 350 349 349 350 349 349 350 349 349 349 349 350 350 350 350 351 351 352 353 353 353
338 338 338 338 338 339 339 339 340 340 339 340 340 341 343 346 348 349 350 350 350 349 349 348 348 349 350 349 348 349 350 350 349 348 349 350 349 349 349 350 351 350 345 343 344 346 346 347 347 349 351 351 351 351 351 350 350 349 349 349 349 349 349 348 348 348 348 349 348 348 348 347 348 348 347 348 349 349 350 350 350 350 351 352 353
338 338 338 338 339 339 339 339 339 339 339 339 340 340 341 343 346 348 348 347 348 348 348 348 348 349 350 350 349 349 349 350 350 349 348 349 349 349 349 350 351 350 345 341 343 345 346 346 346 349 351 351 350 350 350 349 349 349 348 348 348 348 348 348 348 348 348 348 348 347 347 347 347 347 347 347 347 348 349 350 350 349 350 350 351
337 337 338 338 338 338 338 338 338 339 339 339 339 341 341 341 344 347 348 346 347 348 347 347 347 348 349 349 349 349 348 348 349 349 349 350 349 349 348 349 351 352 348 344 344 345 347 348 349 351 352 351 350 350 350 349 349 349 349 349 348 348 348 347 347 347 347 347 347 346 346 346 346 346 346 346 346 347 348 349 350 350 351 351 351
336 336 337 337 338 338 338 338 338 339 339 339 340 341 341 341 342 346 347 346 346 347 347 346 346 347 348 349 349 349 349 349 349 349 349 350 349 349 348 348 350 352 352 351 350 351 352 353 352 352 351 351 350 349 349 349 349 348 348 348 347 347 347 346 346 346 346 346 345 346 346 345 345 345 345 346 346 346 347 348 348 349 350 350 351
336 336 336 337 337 337 337 337 337 338 337 338 339 339 340 340 341 343 345 344 343 345 345 346 346 347 347 349 349 349 350 350 350 349 349 349 349 348 349 350 351 352 353 354 354 354 353 353 352 352 352 351 350 349 349 349 348 348 348 347 347 346 346 345 345 345 345 345 345 345 345 345 345 346 346 346 347 347 348 348 348 348 348 349 350
335 335 336 336 336 336 337 336 336 337 337 337 338 338 338 339 339 340 343 343 341 342 343 344 345 345 346 347 348 348 350 351 351 350 350 350 349 349 349 350 350 352 353 354 354 353 353 352 351 350 350 350 350 349 349 348 348 347 347 346 346 345 345 344 344 344 344 344 345 345 346 346 347 347 347 348 348 348 347 348 348 348 348 349 349
335 335 335 335 335 335 335 335 334 335 335 335 336 336 337 337 337 337 340 341 339 338 339 341 344 345 345 346 346 348 349 350 351 351 351 352 351 351 351 351 351 352 353 353 353 351 350 349 349 348 348 348 348 348 347 347 347 347 346 346 346 346 346 345 345 345 345 345 346 346 347 348 348 349 348 349 348 348 348 348 349 349 349 349 349
334 334 335 335 334 334 334 334 333 333 334 334 334 334 334 335 336 335 337 340 340 338 338 339 341 344 346 345 345 347 348 348 349 350 351 352 352 352 352 353 353 353 352 352 351 350 349 349 349 350 350 349 349 349 349 349 349 348 348 348 348 349 349 349 348 347 347 347 347 348 349 349 349 350 349 349 349 349 349 350 350 350 350 350 350
333 333 334 334 333 333 333 332 332 333 334 334 335 335 334 333 333 333 334 337 339 339 339 339 339 342 346 346 345 345 345 345 346 346 347 347 347 349 350 351 352 353 352 351 351 351 351 352 352 352 352 352 351 351 350 350 348 348 348 348 350 351 351 351 351 351 350 350 350 350 350 350 350 350 350 350 350 350 350 350 350 350 350 350 349
332 332 333 333 333 332 332 331 332 332 334 334 335 335 335 334 333 333 333 334 335 337 339 340 340 341 342 342 341 340 339 339 340 343 345 346 346 347 349 349 350 350 350 350 351 351 351 352 352 352 351 351 350 349 348 347 346 345 345 346 348 350 351 351 351 351 350 351 351 351 351 351 350 350 350 350 350 350 350 350 350 350 350 349 349
331 332 332 332 332 332 331 331 332 332 334 334 334 335 336 335 334 334 334 334 334 334 336 338 339 340 340 338 336 335 334 334 334 337 341 345 347 348 349 349 350 349 348 349 350 350 351 351 350 350 349 348 348 347 347 347 347 346 345 345 345 346 347 348 348 348 348 350 350 350 351 351 350 351 350 350 350 350 349 350 349 349 349 349 348
330 331 331 332 331 331 331 331 331 332 333 334 334 334 336 336 336 336 336 335 335 334 334 334 336 337 339 339 338 336 334 333 333 334 336 342 346 348 347 347 348 348 348 348 348 349 350 350 350 349 349 348 348 348 347 348 347 346 345 344 344 345 346 346 346 347 348 349 350 350 350 350 350 350 350 349 350 350 349 349 348 348 348 347 346
330 330 330 331 331 331 331 331 331 331 332 332 333 334 334 335 336 336 336 336 336 336 336 335 334 334 335 337 338 338 337 335 335 334 335 338 342 344 344 344 345 346 346 346 346 348 349 349 349 349 349 348 348 348 348 348 348 347 347 345 344 345 345 345 345 347 348 348 349 350 350 350 350 350 350 350 350 350 349 349 348 347 347 345 344
329 328 329 330 331 331 331 331 331 331 331 332 333 334 334 334 334 335 335 336 337 337 337 336 334 333 333 333 335 337 338 337 336 336 336 337 339 341 341 341 341 341 342 343 343 345 347 348 348 348 348 348 348 348 348 348 348 348 347 346 345 344 344 345 346 347 348 348 349 349 349 349 349 349 349 349 350 349 349 348 347 347 346 345 344
327 326 328 329 329 330 330 331 331 331 331 332 332 333 333 333 333 334 334 335 335 336 336 336 335 333 332 332 332 333 335 337 337 337 337 337 338 340 340 339 339 340 341 341 342 342 343 344 345 346 347 347 348 348 348 348 348 348 347 347 346 346 346 346 346 346 347 348 348 349 349 349 349 349 349 349 349 349 348 347 346 346 345 345 344
326 327 328 328 328 329 330 330 331 331 331 331 331 332 332 332 333 333 333 333 333 335 336 336 335 334 332 332 332 332 333 335 336 336 337 337 338 340 341 340 340 342 343 343 344 344 343 343 343 344 345 346 347 348 348 348 348 348 348 348 348 347 347 346 346 345 346 347 348 348 348 348 349 349 349 349 349 348 348 347 345 345 345 345 344
326 327 328 328 328 328 329 329 330 330 330 330 330 330 331 331 332 333 333 332 332 333 334 335 336 335 334 334 333 332 333 334 334 334 334 335 336 338 340 339 340 341 343 344 345 346 346 345 345 345 345 346 348 348 349 349 349 348 347 345 345 345 345 345 345 345 345 346 347 348 348 349 349 349 349 349 348 348 348 347 346 345 344 344 343
326 327 327 327 327 328 328 329 329 329 330 330 330 329 330 330 331 332 332 331 331 331 332 333 334 336 336 335 334 333 332 334 334 334 334 335 336 337 338 339 339 340 342 344 345 346 346 346 347 347 347 348 348 348 349 349 349 347 345 344 344 345 344 343 342 342 342 342 343 344 347 349 349 348 348 348 348 348 348 347 347 346 345 344 344
325 326 326 327 327 327 328 328 327 328 329 329 329 330 330 330 330 330 331 330 330 331 332 333 333 335 336 335 333 332 333 334 335 334 334 336 337 338 338 339 340 341 342 343 344 345 346 346 346 347 346 347 348 349 350 350 349 347 346 344 342 343 343 343 342 341 340 339 340 340 343 347 347 347 347 348 348 349 348 348 347 347 346 346 345
323 324 325 325 325 326 327 327 326 326 327 328 328 329 330 330 330 330 330 331 330 330 332 333 334 334 334 334 332 332 332 334 334 334 333 334 336 337 338 340 341 342 343 343 343 343 344 344 344 343 342 342 342 344 346 348 348 346 345 342 340 340 341 341 342 341 340 339 340 341 343 345 346 346 346 347 347 347 348 349 348 348 347 346 346
322 323 323 323 323 324 324 324 324 325 325 326 327 328 328 329 330 329 330 330 330 330 331 332 332 331 332 333 331 330 331 332 334 335 334 333 334 335 336 337 339 340 342 343 343 342 342 342 341 339 339 339 338 339 342 344 344 344 343 342 341 341 341 341 341 342 341 340 340 342 343 345 345 345 346 345 346 346 347 348 348 348 348 346 346
320 320 320 320 320 321 322 322 322 322 322 323 325 325 326 327 327 327 328 329 329 329 331 331 330 330 331 331 331 331 331 332 333 333 333 333 333 333 333 333 334 335 336 338 338 337 337 338 337 337 337 338 337 338 339 340 341 342 342 342 342 341 342 342 343 343 342 341 341 342 344 345 345 345 344 345 345 345 346 346 347 348 348 347 346
317 317 317 317 317 318 318 319 319 318 318 319 321 321 322 323 323 323 324 325 325 327 328 328 329 329 330 331 331 331 332 333 333 333 333 333 334 334 334 334 335 335 336 336 336 336 336 337 337 337 337 338 338 338 338 338 339 339 340 341 341 340 340 340 340 340 340 341 341 342 343 344 345 344 344 344 343 342 342 342 342 344 346 346 346
315 315 315 315 315 315 314 314 315 315 315 316 316 317 318 318 318 318 319 320 321 322 323 324 324 325 325 326 326 326 327 329 330 330 330 329 329 330 330 331 331 332 333 334 334 335 335 335 335 336 336 336 336 336 337 337 336 335 334 334 333 332 332 334 334 335 337 338 339 339 340 341 342 342 341 342 341 340 340 340 340 340 341 342 343
313 313 313 313 312 312 312 311 311 312 312 313 313 313 314 314 314 314 315 315 316 317 318 319 319 319 319 319 319 319 320 321 322 322 322 321 320 322 323 324 325 325 326 327 328 329 330 330 329 330 330 330 330 331 330 330 329 328 327 327 328 328 330 331 332 332 334 336 338 339 340 340 340 340 339 339 340 340 340 340 339 339 339 339 339
313 313 312 311 311 310 310 309 309 309 310 310 310 311 311 311 310 311 311 311 312 312 313 313 314 314 315 315 315 315 315 315 315 316 315 315 315 316 317 318 319 320 320 321 321 321 323 323 323 323 323 323 323 323 322 322 321 321 321 322 324 326 328 329 330 330 332 334 336 338 339 340 340 340 339 339 340 340 340 340 340 340 339 339 339
313 312 311 311 309 309 309 308 308 307 307 308 308 308 308 308 308 308 308 308 309 309 309 309 310 310 311 311 311 311 311 311 311 311 311 311 311 312 313 313 314 315 316 316 316 316 317 317 316 317 317 317 317 316 316 317 317 317 317 318 320 321 322 324 327 328 329 331 333 335 337 338 339 339 339 338 339 340 341 341 341 341 341 340 340
312 311 311 310 308 307 307 307 306 306 306 306 306 306 306 306 306 306 306 306 306 307 306 307 307 308 308 309 309 308 308 308 308 308 308 308 309 309 310 310 311 312 312 312 312 312 312 312 312 312 312 311 311 311 312 312 312 313 314 315 316 317 318 321 323 325 327 329 331 332 334 335 337 338 338 338 339 340 341 341 341 342 342 342 341
311 311 310 309 307 306 306 305 305 305 305 305 305 305 305 305 305 305 305 304 305 305 305 305 305 305 306 306 307 307 306 306 306 306 306 306 306 307 307 308 309 309 310 310 310 310 310 310 309 309 309 308 307 307 307 307 308 310 311 311 312 314 316 318 320 322 324 326 328 330 332 333 334 335 337 338 339 339 340 340 341 341 342 342 342
309 310 309 308 307 306 305 304 304 304 304 304 304 304 304 304 304 304 304 303 303 303 303 303 303 304 304 304 304 305 305 304 304 304 303 304 304 304 305 305 307 307 308 308 308 308 308 308 308 308 308 307 306 304 304 304 306 307 308 308 310 311 313 315 317 319 320 322 324 327 330 331 332 334 335 337 338 339 339 340 340 340 339 339 340
Wind_Speed
4 4 3 4 5 6 7 8 9 10 10 11 11 11 10 9 10 11 12 12 13 12 12 13 13 15 15 15 20 24 25 25 23 23 25 25 22 19 16 19 22 22 21 20 20 20 21 21 21 20 19 19 17 16 16 15 14 14 14 15 14 12 14 14 9 6 8 11 11 9 11 12 12 11 10 9 9 12 17 17 15 15 17 19 18
2 2 2 3 4 5 7 8 9 10 10 11 11 10 9 9 10 11 12 14 15 14 13 12 13 14 15 17 20 23 25 25 24 24 25 24 21 20 21 21 21 22 22 22 21 21 21 21 22 21 20 19 18 17 16 15 15 16 16 15 15 15 15 16 15 10 9 12 13 13 12 12 13 11 11 11 9 11 17 18 15 14 15 17 18
3 1 2 2 3 4 6 7 8 9 9 10 10 9 9 9 10 12 13 15 16 16 16 15 15 15 15 17 20 21 22 24 25 26 26 24 20 21 24 24 21 20 22 23 23 23 22 21 22 22 20 19 19 19 18 18 17 16 17 17 17 16 16 17 17 14 11 11 14 15 13 13 14 13 12 12 10 10 15 17 15 15 15 16 18
7 6 3 3 6 6 6 6 7 8 9 9 10 9 10 10 10 12 14 15 16 17 18 18 18 17 16 17 18 20 21 23 25 27 28 27 25 24 25 26 25 23 23 23 23 23 23 22 22 22 22 21 21 20 20 20 20 18 16 17 17 16 16 16 16 16 15 13 13 15 14 14 15 15 14 13 12 11 12 15 16 16 16 16 16
12 11 8 7 7 7 8 9 8 8 9 9 9 9 9 9 9 10 12 15 17 18 18 18 19 19 17 17 19 19 20 22 24 26 28 29 28 27 27 27 25 22 22 24 26 25 25 24 23 22 22 22 22 21 21 20 20 20 18 17 16 16 16 15 15 17 18 15 13 14 15 15 14 14 15 16 14 12 12 14 16 17 19 17 15
14 14 12 12 10 8 8 10 10 9 10 9 8 8 7 8 8 9 12 15 17 17 18 18 18 19 18 19 20 18 18 22 23 24 26 28 27 27 27 27 26 22 19 22 25 25 25 26 26 24 23 23 22 22 21 21 20 20 19 19 17 16 16 15 15 17 17 15 14 13 14 15 14 14 15 15 15 14 14 15 16 17 20 19 16
17 16 15 14 13 10 10 10 9 9 10 9 8 8 6 6 8 8 9 14 16 16 19 21 21 20 19 19 19 19 20 22 23 24 26 27 26 26 26 27 28 26 24 23 24 26 28 27 26 25 25 25 23 22 21 21 21 20 19 18 17 16 14 13 12 13 14 15 16 15 14 15 15 15 15 16 16 16 16 16 16 17 20 21 20
18 17 17 16 14 12 11 10 9 9 10 10 9 8 6 7 9 10 10 11 14 15 18 21 23 23 22 20 19 20 22 23 23 24 25 26 26 25 25 26 28 27 26 26 25 27 32 29 25 25 26 26 25 23 21 20 20 19 19 17 16 15 14 14 13 12 12 13 14 16 17 17 16 15 15 16 17 18 19 18 18 19 20 22 24
18 17 18 18 16 14 12 11 10 10 10 9 9 9 9 10 11 11 12 12 13 16 18 20 22 23 24 22 19 19 21 23 25 25 26 26 27 27 26 25 26 26 24 24 24 27 33 34 28 24 22 22 24 24 23 22 18 14 12 13 13 12 11 14 14 13 13 12 12 12 13 15 17 17 16 16 18 20 21 21 19 19 19 20 23
18 17 17 18 17 14 12 10 10 10 9 8 8 8 9 10 10 12 11 10 12 14 16 19 22 23 24 23 22 21 21 20 21 23 26 27 28 29 28 26 25 24 23 23 24 27 30 31 31 28 23 20 21 22 24 24 23 18 12 10 11 10 8 9 11 13 13 12 12 12 11 11 14 17 18 19 20 20 20 21 21 19 18 17 20
19 17 16 17 15 13 14 14 14 13 10 9 9 8 9 11 12 12 10 10 12 13 14 17 21 21 21 22 23 23 23 21 20 22 25 28 29 29 28 27 26 25 24 24 23 23 24 24 26 28 27 22 18 18 20 22 24 24 21 16 15 14 12 9 9 10 11 11 12 13 13 13 15 17 17 18 18 17 18 19 20 20 19 16 15
19 18 16 16 15 14 16 19 19 15 10 9 10 9 10 13 14 14 12 12 14 15 15 17 18 18 19 22 23 23 24 24 23 24 25 27 28 28 28 28 28 28 27 26 24 22 21 22 22 23 23 21 18 16 16 18 21 24 24 23 22 21 19 17 14 13 12 12 13 14 16 17 18 18 17 17 17 19 20 20 20 20 20 19 18
17 17 15 16 18 18 18 20 20 18 14 13 14 13 13 15 15 15 15 15 16 15 15 17 18 17 18 23 24 24 25 25 24 26 28 28 28 29 30 30 31 30 27 26 25 24 24 25 25 22 19 19 17 15 15 16 17 20 23 24 26 26 25 25 23 21 18 16 16 17 18 19 19 20 20 19 19 19 21 24 25 23 22 22 23
16 16 14 15 19 20 20 20 21 20 19 19 18 15 13 14 14 14 15 15 16 17 17 17 18 17 17 21 24 25 26 24 21 22 26 28 30 31 32 33 33 31 27 24 24 25 26 27 26 24 24 23 19 16 17 17 17 19 22 24 25 27 27 27 27 27 27 26 24 23 23 22 22 22 21 19 19 20 21 24 26 26 26 27 28
15 16 14 14 17 21 22 22 22 23 23 23 21 16 12 13 14 15 16 16 16 17 17 17 17 17 17 18 21 24 25 24 22 21 23 25 27 29 32 33 33 31 28 23 22 23 25 25 25 25 26 26 23 21 22 21 19 18 20 22 23 23 23 24 23 24 26 28 29 30 30 29 28 28 27 24 23 23 23 24 25 25 26 26 26
16 16 15 14 16 20 23 23 22 23 25 25 24 21 17 14 14 16 17 17 16 16 17 16 15 15 14 12 13 17 20 21 21 22 22 23 24 26 29 29 27 27 27 24 22 22 23 25 28 27 25 24 23 22 21 19 17 17 19 20 20 20 21 21 21 22 23 24 25 26 28 28 28 29 30 29 29 28 27 26 24 24 23 21 22
17 17 16 15 15 18 22 24 23 21 23 26 26 25 23 18 15 16 16 16 15 14 14 14 14 14 13 10 10 13 16 19 20 21 20 20 21 24 25 24 23 25 27 26 25 24 24 27 30 30 28 27 25 23 20 18 16 17 19 19 18 18 18 19 20 23 25 25 25 25 26 27 28 29 30 29 29 29 29 27 25 24 21 17 17
17 18 18 18 17 18 21 24 25 22 21 24 25 26 25 21 18 18 17 16 17 15 13 13 14 15 14 13 15 18 20 20 20 21 20 17 18 23 24 23 25 25 24 25 27 27 27 27 29 29 29 29 27 24 22 20 19 20 20 19 18 17 17 17 19 21 22 23 23 24 25 26 29 31 34 34 33 31 31 31 29 26 23 19 19
18 18 19 20 21 20 20 23 25 25 23 23 24 24 24 22 20 20 20 19 18 15 14 16 19 19 16 16 18 19 19 20 21 21 20 16 17 23 26 25 25 25 22 21 23 25 26 26 25 26 27 27 26 25 22 21 21 22 21 18 17 18 18 18 19 19 19 19 19 19 20 22 24 27 30 32 33 34 35 36 34 30 27 25 24
19 20 20 21 21 22 21 22 24 25 25 24 24 23 23 22 21 20 20 17 13 11 14 18 21 21 18 16 16 17 17 19 21 21 20 17 16 21 25 26 24 23 21 19 19 21 23 23 23 24 25 25 24 24 22 21 21 21 19 18 18 18 18 18 19 18 18 19 20 20 21 22 23 24 26 27 29 31 32 35 36 36 33 30 28
20 20 20 20 21 22 23 23 24 26 26 25 24 23 22 23 22 20 18 14 10 12 17 20 21 22 20 18 18 18 18 18 19 19 19 18 16 19 25 29 26 20 18 19 21 23 24 23 22 24 24 23 23 24 24 24 24 23 22 22 22 21 20 20 21 21 21 22 23 24 25 25 25 26 27 28 29 30 31 32 35 37 37 35 33
19 20 20 20 21 22 23 24 25 26 26 25 24 23 21 21 22 21 17 13 11 14 18 20 19 19 19 19 20 20 20 19 19 20 20 20 18 17 24 31 29 21 17 20 23 25 25 24 22 22 20 19 19 21 22 22 23 24 24 24 23 23 23 24 25 23 23 24 24 25 26 25 25 27 27 27 29 31 32 34 36 38 39 40 40
20 19 19 19 20 21 22 24 25 26 26 26 25 24 22 21 22 21 18 15 14 15 16 17 16 16 17 19 19 20 22 22 22 21 20 19 18 17 21 28 29 23 20 21 24 26 25 22 20 18 15 15 16 18 19 20 22 23 24 24 24 24 25 26 26 25 25 26 25 27 28 26 26 27 28 29 30 30 31 32 35 37 40 42 43
21 20 19 19 20 21 21 23 24 25 27 27 26 25 24 22 21 19 17 15 15 14 13 13 14 14 16 18 19 18 19 20 20 20 19 18 18 19 20 24 25 24 23 25 27 26 22 18 16 15 14 15 16 18 19 20 22 23 24 24 24 24 24 26 27 26 26 26 26 28 29 28 27 29 30 31 30 29 30 32 33 35 37 39 40
22 21 21 21 21 21 22 23 23 24 26 27 26 26 24 23 21 18 15 15 16 14 11 11 12 13 15 17 17 15 15 16 17 19 19 19 19 20 20 20 20 22 24 28 30 28 25 21 18 17 15 15 16 18 20 22 23 24 25 24 24 25 26 27 27 26 26 27 28 29 29 28 28 29 31 30 29 29 30 31 32 34 35 36 38
23 23 23 23 23 23 23 23 23 24 25 26 26 25 24 23 22 19 17 17 17 15 13 13 12 13 15 16 15 14 15 16 18 19 20 20 20 19 18 17 16 17 21 26 28 29 28 28 26 24 21 20 19 20 22 23 24 25 26 27 28 30 30 29 28 27 27 27 26 27 28 26 25 26 27 27 27 28 29 29 31 33 34 34 35
24 24 24 24 24 23 23 23 24 24 24 25 25 25 24 24 23 19 16 16 14 14 17 18 15 13 14 14 14 15 15 16 17 19 19 20 21 19 17 16 15 17 21 26 28 29 30 30 30 30 29 27 27 26 26 27 27 28 29 29 30 31 31 30 28 27 27 26 25 25 25 22 22 23 24 25 27 30 30 29 30 32 32 31 30
24 25 26 26 25 23 23 23 23 22 22 23 24 24 24 23 23 21 17 13 12 14 17 20 20 18 16 15 14 14 14 15 16 18 17 17 18 18 17 17 17 19 24 27 27 26 25 25 24 24 24 25 25 26 27 28 28 28 29 29 28 28 29 28 28 27 26 25 25 25 24 22 22 24 25 26 29 31 30 29 29 31 32 28 27
25 26 27 27 27 25 23 22 22 22 23 23 23 24 25 24 23 23 19 15 15 17 18 21 25 24 22 20 16 14 15 16 17 18 17 16 16 17 17 17 18 21 24 24 22 19 18 18 17 16 16 16 17 18 20 22 23 24 26 27 28 27 26 26 27 28 28 28 27 25 24 24 23 24 24 25 28 29 28 27 28 30 30 28 27
22 23 23 24 25 25 24 23 24 24 23 23 22 23 27 28 27 26 23 20 21 22 21 22 24 25 24 23 22 20 21 21 20 20 19 17 16 17 18 19 21 22 23 22 20 18 17 17 16 15 15 16 16 16 17 18 19 20 21 24 26 27 26 26 27 27 27 27 27 26 24 22 22 22 22 23 25 26 26 26 27 28 27 26 26
20 20 21 21 23 24 24 24 25 23 21 22 22 21 24 29 31 29 26 23 23 23 23 24 25 26 26 26 27 27 27 25 22 21 20 18 17 17 17 18 19 21 21 21 21 21 20 17 16 15 16 16 17 17 16 17 19 20 20 21 21 23 24 25 24 23 22 22 23 23 22 21 21 21 22 23 24 25 25 25 25 25 25 25 25
22 22 22 23 25 25 22 22 23 22 21 21 22 20 20 22 25 26 25 24 23 23 23 24 27 29 30 31 31 31 30 28 25 23 22 21 21 22 21 20 18 17 17 18 18 19 19 17 16 15 16 16 17 18 18 19 21 21 20 19 18 19 21 21 21 20 20 20 21 21 20 21 21 22 22 23 23 23 23 23 23 23 23 23 24
23 23 24 25 27 27 24 20 20 21 21 21 22 21 19 18 19 20 21 22 22 23 22 22 23 26 30 32 33 33 32 31 29 27 24 23 24 25 24 22 20 19 18 18 17 16 16 17 17 17 17 18 18 19 19 21 22 21 20 19 19 19 20 20 19 19 20 20 20 20 21 21 21 21 22 22 21 21 21 21 22 21 21 21 22
23 25 26 26 27 27 26 22 21 21 22 22 22 21 19 19 19 18 17 18 18 19 20 21 21 21 24 28 31 33 34 34 33 31 30 27 25 23 21 20 20 20 20 20 20 18 16 17 18 18 19 20 20 21 21 21 21 22 21 20 19 19 20 20 20 19 20 20 20 21 21 21 21 21 21 21 20 20 19 20 19 19 19 17 15
26 29 29 27 26 26 26 23 22 22 22 22 22 21 20 21 21 18 17 16 15 16 19 20 21 20 21 22 26 30 35 38 37 35 34 32 28 24 22 21 20 21 21 22 23 22 20 19 19 20 21 22 22 22 23 22 22 22 22 21 21 21 20 20 20 20 20 20 21 21 21 20 20 20 20 20 19 18 17 18 18 17 18 17 14
30 29 28 27 27 29 28 26 24 23 23 22 21 21 22 23 21 19 18 17 16 16 17 18 20 21 20 20 22 26 31 36 39 39 38 34 28 24 22 20 18 18 18 19 22 24 24 22 22 21 21 22 24 24 25 24 24 23 22 22 22 21 20 19 19 18 18 19 20 20 21 21 21 21 19 19 19 18 17 18 17 17 17 17 15
29 27 25 26 28 29 30 29 26 25 24 23 22 22 23 22 20 19 18 18 18 18 17 16 17 18 20 21 22 22 24 30 35 37 36 32 25 21 21 19 17 16 16 17 19 21 22 23 24 24 22 23 24 24 25 25 25 24 24 22 21 21 22 21 20 19 19 20 20 20 21 21 21 21 20 19 18 18 17 16 16 15 15 15 13
29 26 24 25 27 27 28 29 28 26 24 22 22 23 23 22 20 18 17 17 19 19 18 16 13 13 16 19 20 19 19 23 27 29 31 28 24 22 21 21 18 17 17 18 19 19 20 22 23 23 23 23 24 24 24 24 22 19 17 16 18 21 22 19 18 19 21 23 23 22 22 21 21 21 20 20 18 18 17 17 16 14 13 13 12
27 25 23 23 24 24 25 27 27 27 25 24 23 23 22 21 20 18 16 16 18 20 19 17 14 11 11 13 17 18 17 17 18 20 22 23 23 23 22 21 19 18 18 18 19 19 20 20 21 21 22 23 23 23 23 22 19 18 19 20 22 25 24 20 17 18 20 22 25 25 23 21 20 21 21 20 19 18 18 17 17 16 14 13 13
23 23 23 24 24 23 23 24 26 27 25 24 23 22 21 19 18 17 15 15 17 17 16 17 16 14 12 13 16 18 17 15 16 18 20 21 22 22 20 18 16 17 18 19 19 19 18 18 19 19 20 22 23 23 22 21 20 23 26 26 24 24 23 19 18 21 21 21 24 28 27 23 20 20 21 21 20 19 19 18 17 17 17 16 15
22 22 22 24 25 24 22 23 26 27 26 25 24 22 20 18 17 17 16 15 16 16 15 15 15 16 17 17 17 16 15 15 16 17 20 24 26 23 20 19 19 19 20 20 19 18 17 17 17 16 16 18 20 22 21 19 18 20 21 20 21 24 25 23 22 24 26 25 24 25 26 23 20 20 21 21 21 20 20 19 18 18 18 17 17
20 20 21 23 24 23 22 22 24 25 25 26 26 26 24 21 18 16 15 14 15 15 15 14 14 16 17 16 14 13 14 13 12 13 14 16 21 22 19 18 19 19 19 19 18 18 19 20 19 18 17 17 19 21 20 17 15 16 18 19 21 24 26 25 23 23 25 26 26 24 24 22 21 21 21 21 21 20 20 20 20 19 18 17 17
19 19 20 22 22 21 21 21 22 23 24 24 24 25 26 25 23 22 21 19 18 17 14 13 13 14 13 11 11 11 12 11 7 7 7 8 12 15 15 13 13 14 13 11 11 12 14 15 16 17 18 17 17 19 21 20 18 18 19 21 22 22 23 25 25 24 25 26 25 23 22 22 21 20 20 21 21 20 21 21 20 20 19 18 17
19 19 20 21 21 20 20 21 21 22 22 22 22 23 24 24 23 24 23 22 22 23 22 20 18 16 15 15 16 16 17 15 12 10 10 11 11 11 11 12 14 16 17 17 16 16 15 15 16 16 16 15 14 12 14 16 16 16 17 18 18 19 20 21 21 22 24 25 23 21 20 20 19 19 19 20 19 19 21 21 19 18 19 18 17
19 19 20 20 20 20 21 21 21 21 21 21 21 22 22 22 22 22 22 22 21 21 22 23 24 24 23 22 22 22 23 22 20 19 19 20 20 19 19 20 21 21 20 20 21 20 19 19 19 19 18 17 18 18 18 17 17 17 18 18 18 20 21 20 20 22 21 19 20 22 23 23 22 22 21 20 18 16 18 21 21 20 20 20 19
20 20 20 20 20 21 21 21 22 21 21 20 20 21 21 21 21 21 20 21 21 20 20 22 22 23 24 23 23 23 24 23 23 23 23 23 24 23 22 22 22 21 21 21 21 21 20 20 20 20 20 20 21 21 21 20 20 22 24 24 23 22 22 21 22 23 22 19 18 20 22 24 26 25 23 22 20 18 18 21 22 22 22 20 19
20 20 19 19 20 20 20 21 22 22 22 21 21 21 20 21 21 20 20 20 20 20 21 21 21 21 21 21 21 21 21 21 21 22 22 23 24 23 22 22 22 21 21 22 22 22 21 21 21 20 21 21 21 21 21 23 25 27 28 27 26 24 24 23 23 24 23 22 20 19 19 22 24 23 21 21 20 19 19 20 21 23 24 23 22
19 18 18 18 19 19 19 20 21 22 22 21 21 21 20 20 21 21 21 21 21 20 21 21 21 20 19 19 20 20 20 20 20 21 21 22 22 22 22 22 22 21 21 21 22 22 22 21 21 20 20 20 21 23 24 26 28 29 28 27 27 26 25 24 24 24 24 24 21 19 18 19 21 22 23 23 21 20 20 21 20 21 23 23 23
17 17 17 18 18 19 19 20 20 20 21 21 20 21 21 20 20 21 21 21 20 20 20 21 21 20 20 20 20 20 20 21 21 21 21 22 22 22 22 22 22 22 21 21 21 22 21 20 21 20 19 19 23 27 29 30 31 31 29 28 28 28 26 25 24 23 24 24 23 21 20 19 19 20 22 23 23 21 21 21 21 21 22 23 24
17 17 17 17 18 18 19 19 19 19 20 20 20 20 20 20 20 21 21 21 21 21 21 21 20 20 20 20 20 21 21 21 21 21 21 21 22 22 22 23 23 23 22 21 21 21 21 20 21 20 19 19 23 30 34 33 32 32 31 30 31 30 28 26 24 23 22 24 24 23 23 23 21 20 21 22 24 23 21 21 22 21 21 22 22
17 16 16 17 17 17 19 20 20 20 20 20 20 20 20 20 20 20 20 21 21 20 21 20 20 20 20 20 20 20 21 21 21 21 21 22 22 22 22 23 23 22 22 22 21 21 20 20 20 20 19 17 20 28 34 34 32 32 32 32 34 34 32 30 28 25 23 22 22 23 23 24 24 23 22 22 23 23 22 23 23 22 21 22 23
Wind_Direction
178 185 196 217 232 242 246 249 252 250 249 251 250 251 253 251 255 256 251 245 237 231 231 227 226 225 222 221 218 216 213 211 213 213 213 215 211 208 220 229 232 236 236 233 231 232 232 230 233 235 232 234 239 238 238 234 222 217 221 225 223 214 199 190 191 210 220 227 237 232 216 216 222 228 236 240 234 232 225 218 227 234 227 225 226
144 170 201 221 238 254 258 258 258 257 255 255 254 255 256 253 256 256 249 249 248 240 234 232 230 228 228 229 224 219 215 212 214 217 216 215 212 212 222 228 230 234 235 235 235 236 236 231 231 235 234 233 236 238 239 236 228 223 222 223 222 219 211 199 193 200 218 223 231 242 234 217 217 223 227 234 241 238 228 219 223 233 227 224 228
17 298 267 270 288 284 271 263 259 261 262 263 262 257 256 254 252 254 250 248 248 240 232 231 229 227 230 233 230 223 218 215 214 216 217 217 213 214 221 224 227 233 232 233 236 237 238 234 230 230 232 232 232 234 239 241 239 231 224 224 224 222 221 214 201 197 210 220 222 230 236 226 220 222 226 231 237 234 226 220 224 229 221 219 229
352 335 325 309 309 315 313 300 278 270 268 267 265 258 258 256 253 259 257 249 247 241 231 230 231 227 225 233 235 227 220 218 216 214 216 218 216 217 220 220 225 232 232 233 234 234 236 237 232 227 228 232 234 233 235 240 244 244 236 229 227 227 227 222 212 203 204 215 219 220 228 230 221 220 226 232 237 236 228 227 233 234 227 224 229
347 345 341 322 321 334 328 316 304 291 279 270 267 264 264 260 254 262 263 255 253 249 239 233 235 233 228 232 237 233 225 222 221 220 220 222 223 223 222 221 226 234 236 238 239 234 231 233 234 229 226 229 233 235 235 236 239 244 244 238 233 232 232 226 220 213 208 211 216 217 227 233 229 226 227 226 230 234 233 232 234 234 235 239 237
345 345 340 331 337 351 331 312 310 304 289 275 270 268 261 251 247 257 268 264 258 256 254 244 237 235 233 231 231 230 229 228 228 227 226 227 228 228 226 223 225 231 235 241 247 246 237 231 231 231 228 228 230 231 233 237 238 239 240 239 237 233 231 230 224 214 210 217 221 221 228 230 229 229 224 219 222 227 231 234 237 237 237 241 242
346 343 340 338 342 352 345 329 324 314 300 291 286 281 269 249 243 243 260 270 268 264 261 252 240 235 234 234 232 230 234 235 233 231 230 231 231 230 230 229 228 230 235 240 249 259 254 239 229 230 230 230 231 230 229 233 238 241 240 239 242 241 233 232 233 219 211 216 220 225 235 234 228 228 226 225 231 232 231 230 232 234 234 237 241
348 345 343 344 346 349 346 335 323 311 304 298 288 279 262 247 244 225 216 242 263 267 265 261 256 249 243 240 238 236 237 238 238 237 235 233 231 232 235 236 232 229 232 235 243 259 267 259 241 233 231 230 232 233 233 233 234 240 245 243 247 252 238 226 232 234 224 221 222 223 230 232 229 232 232 227 227 228 228 228 230 233 235 237 240
350 350 347 347 348 347 340 331 318 307 303 299 289 278 259 245 241 229 211 215 239 257 263 265 266 263 257 251 245 241 239 238 239 241 240 236 234 235 238 240 237 230 230 235 239 251 267 273 266 250 238 237 236 232 232 237 238 240 244 241 242 250 239 222 226 232 225 227 239 238 231 227 227 230 230 224 223 226 227 229 233 236 237 238 240
350 353 354 349 347 344 337 329 318 311 307 302 299 290 275 258 241 233 228 224 234 251 265 269 267 266 264 259 252 245 240 238 239 241 242 239 238 239 240 239 238 236 236 239 239 242 253 267 274 266 250 244 241 231 227 233 240 245 248 245 242 246 243 227 228 234 226 221 234 241 238 235 232 231 230 229 231 231 228 226 229 234 236 238 242
347 352 356 349 343 339 331 321 312 310 307 300 300 293 284 281 269 251 241 234 231 235 248 263 268 271 273 270 262 253 246 243 243 244 244 241 239 241 242 240 237 238 240 240 240 243 243 247 263 266 256 249 246 237 233 234 238 242 246 250 252 253 253 244 234 236 232 222 222 226 230 237 241 240 237 235 237 238 234 230 229 230 230 231 236
345 346 349 344 336 328 325 324 320 319 314 300 295 287 277 281 282 276 263 247 239 234 232 241 251 258 263 264 261 256 252 249 247 245 244 241 238 239 242 243 242 243 244 242 242 248 247 240 245 252 253 256 257 251 249 249 246 245 248 252 256 257 257 253 247 239 232 229 230 231 233 237 241 243 240 237 238 239 239 237 235 232 230 230 233
343 340 341 341 336 327 326 328 326 324 319 310 304 294 284 285 286 283 279 268 257 252 244 239 240 241 247 252 252 251 251 249 245 244 244 242 240 239 241 244 245 245 245 244 245 248 249 247 246 242 243 253 258 254 253 256 257 257 257 258 259 259 259 258 256 252 245 240 241 243 243 242 242 243 242 243 241 236 235 238 239 238 235 235 236
337 332 332 336 334 331 329 328 326 325 322 319 317 308 298 299 297 289 283 276 270 267 263 254 248 247 249 252 250 249 248 246 246 249 249 245 242 241 241 243 244 243 242 242 245 245 245 248 250 246 242 244 245 246 246 244 247 254 259 259 257 257 257 257 257 257 255 251 249 248 247 245 245 246 248 250 246 237 232 234 236 237 238 240 242
329 327 327 329 330 328 325 322 323 323 322 321 322 317 308 304 303 299 291 281 278 279 274 261 253 255 256 251 249 253 255 252 251 254 254 251 247 243 241 240 240 242 242 241 245 246 244 245 248 247 244 241 240 242 243 238 236 245 253 255 253 252 253 253 254 256 258 257 255 255 254 251 250 251 251 251 249 245 244 245 243 241 241 244 248
325 325 324 324 325 322 318 315 314 315 317 318 318 317 314 307 304 306 301 292 286 283 278 273 274 276 271 259 263 272 272 267 262 258 256 255 253 248 242 239 241 248 250 245 243 246 246 245 247 249 249 246 243 243 245 242 242 247 248 249 251 252 252 252 253 253 253 253 254 255 255 254 253 254 254 252 251 251 254 255 251 243 240 243 247
319 320 321 321 319 315 312 309 306 304 306 309 311 314 315 312 309 307 304 298 294 290 288 294 299 296 286 277 275 271 267 268 269 267 263 257 252 248 245 245 250 256 256 250 247 249 250 248 248 249 250 250 247 243 242 242 245 249 248 248 252 255 258 258 257 258 258 257 257 256 256 256 256 255 255 253 252 252 253 253 251 243 237 236 238
313 315 316 317 314 309 305 304 304 302 299 299 303 309 311 310 309 308 305 302 300 299 300 299 288 276 267 260 255 250 250 256 260 261 261 257 250 245 243 247 255 254 249 245 243 243 244 246 248 247 247 248 248 246 244 241 242 246 247 247 250 254 260 262 261 263 267 268 268 265 263 262 261 258 256 255 253 252 250 251 253 249 242 238 240
311 311 310 309 307 305 302 299 301 302 301 298 296 300 303 303 301 303 304 305 305 303 299 291 279 269 261 256 256 257 257 256 255 256 258 254 247 241 234 235 246 249 247 245 244 241 239 240 245 247 247 248 250 251 250 245 241 243 245 248 252 255 258 261 262 266 270 271 272 271 267 266 264 263 262 260 258 254 252 253 254 251 246 244 244
311 309 307 304 302 302 300 297 296 298 300 301 297 295 297 297 297 300 304 306 306 301 294 287 281 277 273 264 262 267 267 261 257 259 260 254 249 245 236 231 238 245 250 255 260 259 253 247 246 248 251 252 250 249 248 244 240 242 243 246 252 255 258 261 262 266 269 271 272 273 272 271 270 269 269 267 264 260 258 257 254 251 250 249 246
311 308 306 303 300 299 298 296 295 295 296 299 299 295 294 295 294 296 299 299 295 292 290 285 281 280 277 267 261 263 265 263 260 261 261 256 253 249 240 235 234 239 248 254 253 254 257 257 253 250 251 253 250 246 246 246 246 248 248 249 252 255 259 262 264 267 271 274 274 274 274 273 273 272 271 269 267 265 262 259 255 252 250 249 246
311 308 306 302 298 297 295 294 294 294 294 296 297 296 295 294 293 293 294 292 288 286 285 282 279 280 280 275 268 262 258 256 256 259 260 256 252 247 242 239 235 232 245 259 258 254 255 258 255 250 246 245 244 243 243 245 247 249 249 251 253 254 256 259 262 266 269 270 271 272 271 270 269 270 270 268 267 267 264 261 258 255 252 249 247
311 309 306 301 296 294 292 292 292 292 293 293 294 295 295 293 291 290 287 284 283 282 281 279 274 272 272 271 266 259 256 256 256 256 257 255 252 247 243 241 236 228 231 249 257 257 255 253 250 248 246 242 241 242 241 240 242 245 247 250 252 252 254 256 259 262 264 265 267 267 265 264 265 267 267 265 264 265 265 264 263 261 259 253 249
314 312 308 304 300 296 292 291 291 291 292 293 293 294 294 293 291 288 283 279 275 272 272 274 271 264 262 263 261 258 258 259 256 250 247 249 250 246 240 237 235 231 230 237 245 250 253 255 256 255 251 245 243 243 244 243 243 246 250 253 253 252 253 254 256 258 260 260 261 261 260 261 261 262 262 262 263 265 265 265 266 265 262 259 253
316 314 311 308 304 301 297 295 293 291 291 291 291 291 292 293 291 289 284 278 274 271 269 266 263 259 256 256 258 259 257 254 250 246 244 246 248 246 243 237 232 231 236 241 246 250 253 257 259 256 250 247 245 245 248 250 252 254 256 258 259 258 257 256 256 255 255 255 255 256 259 260 260 261 263 264 265 265 264 265 266 265 264 263 260
318 315 313 311 308 306 302 298 295 293 292 291 291 290 292 293 291 286 279 272 272 278 280 271 263 262 262 260 259 260 258 252 251 252 253 252 250 247 244 241 235 234 240 246 251 253 254 255 256 254 251 252 252 252 254 256 259 263 264 264 264 263 259 256 253 250 249 250 251 254 258 261 262 264 266 265 264 265 265 266 267 267 266 264 261
316 313 311 310 309 307 304 301 299 296 295 295 293 291 291 292 292 289 278 263 262 276 282 279 272 263 259 258 256 255 255 252 255 261 262 259 257 254 249 246 243 241 243 247 250 253 255 257 258 257 254 254 253 254 256 258 261 265 266 265 264 262 259 255 250 247 246 248 250 253 256 259 261 263 264 265 266 269 270 268 266 266 267 264 260
314 311 309 308 308 306 306 307 306 305 306 306 301 298 297 296 296 298 288 264 259 274 278 276 273 267 260 258 255 253 251 248 250 257 259 259 261 262 259 255 250 245 244 246 250 254 258 260 261 258 255 254 255 256 258 259 261 261 260 259 257 256 256 253 247 244 244 245 247 250 252 256 259 261 263 265 269 273 274 269 265 265 266 263 258
318 314 312 312 311 311 312 315 315 314 315 312 305 302 303 301 302 306 301 283 276 279 272 266 268 269 267 264 258 250 249 251 251 250 249 251 255 256 254 251 247 246 247 246 244 245 247 247 245 243 241 239 240 245 248 250 251 253 253 252 248 245 245 242 239 239 241 242 243 247 251 254 258 261 263 265 269 272 272 269 267 267 267 262 257
321 316 313 312 313 315 318 319 318 314 311 308 305 303 303 301 301 303 300 292 285 280 269 263 266 267 266 267 266 261 260 264 263 258 256 257 255 251 251 249 244 242 245 243 236 232 233 234 232 231 231 230 230 233 240 246 251 253 254 251 244 238 236 236 235 237 239 238 239 243 247 251 255 259 262 266 270 272 273 273 272 270 268 264 261
321 318 315 312 312 314 312 310 310 307 303 303 303 303 304 305 304 303 300 295 291 283 271 264 262 262 264 270 273 274 273 274 271 264 260 259 253 249 254 255 246 240 239 235 227 225 229 234 236 237 239 241 243 248 254 260 262 260 257 254 248 241 237 237 238 239 240 241 242 244 247 250 254 258 261 265 270 274 277 281 280 274 271 268 265
325 322 319 313 311 311 308 304 302 299 296 297 297 295 297 300 301 301 300 298 297 294 286 274 265 262 263 267 271 274 276 277 277 273 267 259 252 252 257 260 254 244 235 226 221 223 229 236 241 244 247 249 254 257 259 260 262 261 258 256 256 255 252 250 250 249 247 249 250 251 253 254 256 259 262 266 270 275 279 283 283 279 277 275 271
328 325 323 318 313 311 306 301 298 294 291 293 292 290 290 291 292 295 299 299 298 298 296 290 281 272 268 269 270 272 273 274 275 275 271 265 259 257 257 257 254 247 239 232 230 232 237 242 246 248 249 252 255 257 256 257 263 267 267 262 257 256 256 258 259 256 252 252 254 256 259 260 259 260 264 266 270 274 278 281 282 282 282 282 280
330 327 325 323 320 315 309 302 298 293 290 289 288 286 286 288 288 290 292 296 299 298 296 297 295 287 279 274 273 272 271 271 272 272 270 267 262 259 257 255 253 250 246 243 242 242 243 244 246 248 251 253 255 256 257 259 263 267 271 271 266 263 264 265 263 260 256 256 258 260 260 260 259 260 263 267 269 272 276 281 283 283 281 280 288
336 333 328 325 325 323 318 309 300 296 293 290 289 288 287 286 286 283 281 283 288 290 291 292 292 290 284 278 275 274 272 270 270 271 271 267 262 260 259 257 254 253 250 247 246 246 245 245 246 248 250 250 250 251 253 255 256 258 262 266 267 267 266 262 260 259 258 258 258 259 260 261 261 262 262 264 266 268 272 280 284 283 279 276 280
338 335 329 327 329 329 325 317 307 300 295 290 287 287 286 284 284 284 285 284 282 283 285 286 289 292 289 281 278 281 280 275 270 267 268 268 265 259 254 252 251 251 249 246 246 246 245 245 246 246 246 246 246 247 249 251 252 254 256 258 263 268 268 264 261 261 262 262 261 262 263 263 264 264 263 261 262 263 267 273 279 281 279 276 275
335 331 328 331 333 333 331 327 319 310 300 291 288 288 286 286 287 288 288 288 286 283 281 281 284 289 290 287 284 288 294 293 281 269 264 266 265 253 245 244 245 246 245 243 241 240 239 240 240 240 241 244 245 247 249 251 252 252 253 256 264 272 277 276 272 268 266 265 264 266 268 267 265 263 262 259 257 257 259 263 269 273 274 271 266
335 333 331 333 336 337 338 336 331 323 312 302 297 294 290 288 289 288 286 286 286 283 281 278 278 281 286 292 297 301 306 307 295 275 262 260 255 245 240 241 243 247 249 248 245 242 240 239 239 238 240 243 245 247 250 253 254 258 267 278 280 277 278 283 288 288 284 277 270 267 266 266 268 267 264 260 258 254 253 255 256 259 263 261 256
335 334 335 337 336 339 343 343 340 335 327 317 310 302 294 290 289 289 290 290 289 288 288 289 290 290 291 300 309 311 309 306 296 281 271 263 254 244 241 240 241 244 247 250 251 252 251 250 247 245 244 246 247 248 250 250 250 254 262 267 266 265 267 273 280 286 291 291 288 284 274 267 268 271 268 265 261 256 253 252 248 244 245 245 243
332 333 338 341 340 342 346 348 349 347 341 332 324 314 304 297 295 295 296 293 287 287 290 291 292 297 304 311 313 312 307 300 292 289 287 279 265 250 239 237 240 243 246 250 253 253 256 259 260 258 258 259 257 254 250 248 251 257 260 261 263 269 275 276 270 266 265 269 278 281 277 269 269 272 272 269 266 261 257 256 252 246 241 240 240
331 334 340 343 343 345 348 349 351 352 351 350 347 339 328 318 309 305 305 303 299 297 296 294 299 306 314 320 322 320 316 305 289 279 280 284 282 270 251 240 239 241 244 250 254 256 261 269 274 276 279 281 281 276 264 253 254 260 260 257 261 267 270 269 266 262 257 253 256 265 270 270 269 269 270 269 269 266 260 257 255 251 244 240 239
335 339 343 344 344 345 347 348 349 350 352 354 357 359 358 354 345 338 335 329 321 311 300 298 309 319 324 333 339 334 326 315 292 269 272 291 302 301 288 272 264 259 255 256 264 271 277 281 286 289 293 298 300 295 283 272 268 268 264 261 261 263 263 264 266 265 263 261 261 265 272 274 271 268 268 268 269 268 264 258 255 253 247 242 239
342 345 346 345 344 344 345 347 349 350 352 352 354 0 6 9 8 6 4 2 357 349 337 327 325 326 333 354 9 3 354 350 328 289 287 308 319 317 313 311 311 312 310 310 316 318 315 314 317 316 314 314 308 294 283 282 283 282 278 273 268 264 262 262 264 266 265 264 266 270 275 277 277 277 276 273 270 271 271 265 258 253 248 242 237
351 351 351 350 348 348 350 350 350 351 353 353 357 2 6 8 9 9 8 8 9 9 9 9 6 3 7 17 23 21 21 24 24 17 11 9 1 353 353 360 3 5 8 12 15 12 5 360 0 358 352 351 347 330 314 312 314 311 306 299 293 291 291 288 287 287 279 271 270 276 281 284 287 289 288 285 287 292 294 291 286 278 269 259 248
359 357 357 356 355 355 356 356 354 354 355 358 2 5 6 7 9 8 8 9 9 9 12 16 19 19 20 19 19 19 21 24 27 29 28 25 22 21 19 17 17 18 18 17 18 20 20 17 14 13 12 10 8 6 2 1 1 359 355 351 348 345 340 334 328 324 314 298 285 281 281 285 290 291 290 292 298 302 297 290 285 283 281 277 271
4 3 3 3 0 359 0 360 358 358 359 1 4 5 6 7 9 8 9 10 10 8 9 13 17 19 18 16 15 15 16 18 20 23 24 23 22 20 17 14 14 15 15 14 16 18 19 18 15 13 12 9 7 6 5 2 360 359 358 356 354 350 344 339 335 334 335 331 316 299 290 289 290 290 288 286 286 281 276 273 270 268 268 268 268
6 7 7 7 5 3 3 3 3 2 3 4 6 7 8 8 9 9 10 12 12 11 12 13 15 17 16 14 14 14 13 14 15 17 19 19 19 17 15 13 12 12 12 14 16 16 16 16 15 13 11 9 8 5 0 353 349 349 349 348 347 344 340 336 334 331 331 331 326 316 304 295 291 289 286 282 282 280 277 277 275 271 266 262 257
6 7 8 9 10 9 8 7 8 7 6 5 7 8 9 10 10 11 12 13 13 14 15 15 17 17 15 15 16 16 14 15 16 15 15 15 15 14 14 14 13 13 13 13 14 15 15 15 15 14 14 14 12 7 1 356 354 354 352 350 348 345 340 335 331 328 325 324 322 317 310 300 294 290 286 282 281 278 273 273 274 270 265 263 261
4 7 10 11 11 11 11 10 11 10 8 6 7 8 10 12 12 13 14 14 14 15 16 17 18 18 17 17 18 18 17 19 19 17 16 15 13 12 14 15 14 15 15 14 14 14 14 13 15 17 19 21 18 14 11 9 5 3 360 357 354 350 344 337 332 325 321 319 316 313 310 305 298 292 288 284 282 278 272 270 272 268 264 264 263
3 6 10 12 11 11 11 10 11 12 11 9 8 7 9 11 13 14 15 15 15 15 17 17 18 18 18 18 19 20 20 21 20 18 17 16 14 13 14 15 16 17 17 15 14 14 14 14 15 17 18 19 17 15 15 13 10 7 7 5 2 357 350 344 338 330 321 316 312 307 306 304 298 292 287 284 282 281 277 273 271 268 267 269 268
5 5 9 10 10 11 11 10 9 10 10 9 8 7 8 10 12 13 13 14 14 14 14 15 16 17 18 18 19 20 21 20 20 19 18 16 15 15 14 14 15 15 15 14 13 12 13 14 14 14 15 15 11 9 9 8 7 7 9 8 4 2 359 355 348 340 330 320 311 303 300 299 296 292 288 283 280 280 280 277 272 268 265 268 272